Location: Baix
(44.7118°N, 4.7648°E)
Time: 02:14:57
(UTC+00:00)

ARIANE 5 R/B - Pass Details

Date: 07 August 2020
Orbit: 749 x 794 km, 98.6° (Epoch: 19 September)

Event Time Altitude Azimuth Distance (km) Brightness Sun altitude
Rises 03:46:48 0° 3° (N) 3,295 6.3 -8.2°
Reaches altitude 10° 03:49:29 10° 350° (N) 2,366 5.3 -7.8°
Maximum altitude 03:53:39 25° 297° (WNW) 1,569 3.9 -7.2°
Drops below altitude 10° 03:57:49 10° 244° (WSW) 2,361 4.3 -6.6°
Enters shadow 03:58:23 - 241° (WSW) 2,547 4.5 -6.5°
